Torna al catalogo

MOLNIYA 3-24

AttivoComunicazioniHEO
NORAD 15738·PAYLOAD·🇷🇺 Russia

Lanciato May 29, 1985 da Plesetsk Cosmodrome

Loading…

Prossimi Passaggi (prossime 24 ore)

TLE

AggiornatoSource: Space-Track

Epoca: Sep 12, 2026, 17:22 UTC

1 15738U 85040A   26255.72402974  .00000162  00000-0  20948-3 0  9991
2 15738  62.3586 134.4236 6958423 258.9347  22.0753  2.55675396343450

Traccia MOLNIYA 3-24 in tempo reale con AllMySat

Download on the App Store